Regional Weather Roundup
Issued by NWS

Home | Current Version | Previous Version | Graphics & Text | Print | Product List | Glossary On
Versions: 1 2 3 4 5 6 7 8 9 10 11 12 13 14 15 16 17 18 19 20 21 22 23 24 25 26 27 28 29 30 31 32 33 34 35 36 37 38 39 40 41 42 43 44 45 46 47 48 49 50
000
ASUS43 KMKX 261500
RWRWI

WISCONSIN REGIONAL WEATHER ROUNDUP
NATIONAL WEATHER SERVICE MILWAUKEE/SULLIVAN WI
1000 AM CDT TUE SEP 26 2017

NOTE: "FAIR" INDICATES FEW OR NO CLOUDS BELOW 12,000 FEET WITH NO
SIGNIFICANT WEATHER AND/OR OBSTRUCTIONS TO VISIBILITY.

WIZ001-002-006>008-014>016-023>028-261600-
NORTHWEST WISCONSIN

CITY           SKY/WX    TMP DP  RH WIND       PRES   REMARKS
SUPERIOR ARPT  DRIZZLE   55  55  99 NE10G17   29.92F
ASHLAND        LGT RAIN  58  57  97 NE12      29.91S FOG
HAYWARD        CLOUDY    61  59  93 SW5       29.91R
SIREN          CLOUDY    59  57  94 W7        29.91S
CUMBERLAND     CLOUDY    59  55  88 W5        29.92S
RICE LAKE      CLOUDY    60  59  98 W6        29.93R
CHETEK         CLOUDY    61  61 100 W5        29.92R
LADYSMITH      LGT RAIN  64  64  98 SW3       29.93S
EAU CLAIRE     NOT AVBL
MENOMONIE      DRIZZLE   61  61 100 W8        29.92R
NEW RICHMOND   CLOUDY    58  58  98 W6        29.94S
OSCEOLA        CLOUDY    58  58 100 W6        29.96R
$$

WIZ003>005-009-010-017-018-261600-
NORTH CENTRAL WISCONSIN

CITY           SKY/WX    TMP DP  RH WIND       PRES   REMARKS
MANITOWISH WTR NOT AVBL
ARBOR VITAE    CLOUDY    64  64  97 SW5       29.92F
WOODRUFF       CLOUDY    64  64  97 SW5       29.92F
RHINELANDER    CLOUDY    66  65  96 SW6       29.93F
EAGLE RIVER    CLOUDY    65  65  99 SW5       29.92S
LAND O LAKES   CLOUDY    65  65 100 S3        29.93S
PHILLIPS       CLOUDY    63  63 100 SW5       29.91S
TOMAHAWK       RAIN      64  63  97 CALM      29.94S
MEDFORD        CLOUDY    64  63  97 S6        29.93R FOG
MERRILL        CLOUDY    68  65  92 SW6       29.93S
$$

WIZ029-030-035-036-043>047-261600-
CENTRAL WISCONSIN

CITY           SKY/WX    TMP DP  RH WIND       PRES   REMARKS
WAUSAU         CLOUDY    67  65  93 S7        29.92S
MOSINEE        PTSUNNY   66  66 100 SW8       29.95S
MARSHFIELD     CLOUDY    66  64  93 SW7       29.93S
STEVENS POINT  CLOUDY    65  65 100 SW7       29.96R
WAUPACA        CLOUDY    71  69  92 SW3       29.94R
WAUTOMA        CLOUDY    69  66  90 S3        29.95R
WISC RAPIDS    LGT RAIN  68  67  96 CALM      29.94F
CAMP DOUGLAS   CLOUDY    68  68 100 S5        29.93R
$$

WIZ011>013-019>022-031-037>040-048>050-261600-
NORTHEAST WISCONSIN

CITY           SKY/WX    TMP DP  RH WIND       PRES   REMARKS
ANTIGO         LGT RAIN  65  65  98 SW6       29.95S
SHAWANO        CLOUDY    71  66  83 W3        29.93R
OCONTO         CLOUDY    67  66  96 CALM      29.91F
STURGEON BAY   CLOUDY    71  63  75 CALM      29.92F
GREEN BAY      PTSUNNY   71  67  87 SW5       29.92S
MANITOWOC      CLOUDY    76  63  64 S6        29.92S
APPLETON       PTSUNNY   72  66  83 S5        29.93R
CLINTONVILLE   CLOUDY    70  64  83 SW3       29.93R
OSHKOSH        CLOUDY    73  66  78 CALM      29.93R
$$

WIZ032>034-041-042-053>061-261600-
SOUTHWEST WISCONSIN

CITY           SKY/WX    TMP DP  RH WIND       PRES   REMARKS
LA CROSSE      CLOUDY    70  67  90 S7        29.93S
SPARTA         CLOUDY    62  61  97 CALM      29.95R
VIROQUA        CLOUDY    67  67 100 SW6       29.96R
BOSCOBEL       CLOUDY    70  67  90 CALM      29.94R
PRAIRIE DU CHI CLOUDY    68  65  92 CALM      29.94R FOG
PLATTEVILLE    CLOUDY    69  68  96 CALM      29.97R
$$

WIZ056-057-062-063-064-067-068-261600-
SOUTH CENTRAL WISCONSIN

CITY           SKY/WX    TMP DP  RH WIND       PRES   REMARKS
REEDSBURG      CLOUDY    68  68 100 SW3       29.94S
BARABOO/DELLS  CLOUDY    68  65  91 CALM      29.95S
LONE ROCK      NOT AVBL
MINERAL POINT  CLOUDY    68  68 100 W3        29.97R
MADISON        CLOUDY    73  64  73 W3        29.94R
MIDDLETON      CLOUDY    72  66  81 W3        29.95R
WATERTOWN      CLOUDY    72  65  79 CALM      29.93S
MONROE         CLOUDY    72  61  68 S7        29.95S
JANESVILLE     PTSUNNY   75  63  64 VRB3      29.94R
$$

WIZ051-052-058>065-066-070>072-261600-
SOUTHEAST WISCONSIN

CITY           SKY/WX    TMP DP  RH WIND       PRES   REMARKS
MILWAUKEE      CLOUDY    79  62  56 S6        29.93F HX  80
WAUKESHA       SUNNY     73  61  64 S5        29.95
MILWAUKEE/TIMM SUNNY     75  57  53 SW3       29.94F
RACINE         CLOUDY    78  62  57 S5        29.95F HX  80
BURLINGTON     CLOUDY    72  63  73 CALM      29.94S
KENOSHA        CLOUDY    78  62  57 SW3       29.95S HX  80
FOND DU LAC    CLOUDY    73  63  70 CALM      29.93S
SHEBOYGAN      PTSUNNY   76  65  68 S6        29.92F
WEST BEND        N/A     72  63  73 CALM      29.93F
JUNEAU         CLOUDY    71  64  78 SE3       29.95R
$$

LSZ147-162-261600-
LAKE SUPERIOR

STATION/POSITION TIME  TEMP    WIND        PRES    WAVE
                       AIR SEA DIR/SP/G            HT/PER
                 (UTC) (F)     (DEG/KT/KT) (MB)    (FT/S)
W MID LAKE BUOY  1350   55 54   40/ 16/ 19 1013.2R   5/ 6
DEVILS ISLAND    1400   55      50/ 20/ 22 1013.6R
SAXON HARBOR     1440   60      CALM  /  1 1012.2S
$$

LMZ867-665-643>646-261600-
LAKE MICHIGAN

STATION/POSITION TIME  TEMP    WIND        PRES    WAVE
                       AIR SEA DIR/SP/G            HT/PER
                 (UTC) (F)     (DEG/KT/KT) (MB)    (FT/S)
S GREEN BAY BUOY 1430   67 70  110/  4/  6 1012.7F
N MID LAKE BUOY  1350   69 67  180/  8/ 10 1013.3S   1
NORTHPORT PIER   1440   72     340/  1/  6 1012.5S
KEWAUNEE LAKESHO 1430   71     280/  4/  6 1012.2F
SHEBOYGAN LAKESH 1400   69     170/  4/  4 1012.7F
PORT WASHINGTON  1440   74     160/  4/  5 1014.2S
ATWATER BUOY     1309   65 62  150/  4/  4 1013.7F
MILWAUKEE LAKESH 1430   71     170/  3/  3   N/A
S MID LAKE BUOY  1350   72 71  170/  8/  8 1014.1R   1
KENOSHA   LAKESH 1400   73     180/  2/  5 1013.9
$$

TC  - TEMPERATURE IN CELSIUS
VSB - VISIBILITY IN STATUTE MILES
WCI - WIND CHILL INDEX
HX  - HEAT INDEX





USA.gov is the U.S. government's official web portal to all federal, state and local government web resources and services.